Meteopurmerend
purmerend
Purmerend - Baaienwijk



My webcam  My webcam


waarschuwing voor Onweer Meer informatie blitzortung!


Regen radar Meer informatie rain snow radar


Bezoek onze andere website:

CandyAppleRed WebdesignWebdesign Purmerend Candy Apple Red

MeteopurmerendBlog

Template documentation
and downloads



Onweer van: 26-07-2021 13:00 tot: 21:00 waarschuwing voor: Onweer niveau: Geel info button
Enkele onweersbuien, lokaal met hagel en veel neerslag in korte tijd.Kans op blikseminslag, hagel en veel neerslag in korte tijd.Verkeer en buitenactiviteiten kunnen hinder ondervinden.Mijd open water en open gebied, schuil niet onder bomen.Volg weerberichten en waarschuwingen.

15 daagse weersverwachting Rotterdam (NL)

  • Overzicht
  • Per uur
  • 15 dagen
  • Extra
  • Vergelijk
  • Kaarten
  • Dagkaart
  • Meer »
  • Info
  • Statistieken
  • Directe link
    Temp 6h Neerslag Wind  
 05:58     21:40    Daglengte: 15:42 Vandaag
20:00
18°
3.8 mm
4
 05:59     21:39    Daglengte: 15:40 Morgen
02:00
17°
0.4 mm
3
08:00
16°
 
4
14:00
20°
1.5 mm
4
20:00
18°
12.8 mm
3
 06:01     21:37    Daglengte: 15:36 Woensdag 28 Jul
02:00
17°
 
4
08:00
16°
 
6
14:00
19°
14.7 mm
7
20:00
18°
24.9 mm
7
 06:02     21:36    Daglengte: 15:34 Donderdag 29 Jul
02:00
15°
26.1 mm
7
08:00
15°
17.3 mm
7
Locatie info
Region: Zuid-Holland
Latitude: 51.9228°N
Longitude: 4.4785°E
9 masl
Postcode: 3012
Temp/Neerslag /Baro Onweer/Dauwpunt
    Temp Baro 1h Neerslag Dauwpunt Wind UV Bewolking  
 05:58     21:40    Daglengte: 15:42 Vandaag
16:00
20°
1009.0 hPa 1.7 mm
48%
16.5°
3
Windvlaag: 5.2 m/s
68%
17:00
20°
1009.0 hPa 1.3 mm
82%
16.1°
4
Windvlaag: 4.4 m/s
80% warningclass
18:00
19°
1009.1 hPa 0.8 mm
82%
15.8°
4
Windvlaag: 2.1 m/s
75% warningclass
19:00
19°
1009.2 hPa
82%
15.7°
4
Windvlaag: 2.1 m/s
85% warningclass
20:00
18°
1009.4 hPa
82%
15.5°
4
Windvlaag: 2.4 m/s
67%
21:00
18°
1009.8 hPa 0.4 mm
74%
15.6°
3
Windvlaag: 2.4 m/s
79%
22:00
17°
1010.5 hPa
20%
15.9°
3
Windvlaag: 2.7 m/s
62%
23:00
17°
1010.8 hPa
14%
15.7°
3
Windvlaag: 3.2 m/s
20%
 05:59     21:39    Daglengte: 15:40 Morgen
00:00
17°
1010.9 hPa
14%
15.6°
3
Windvlaag: 3 m/s
56%
01:00
16°
1010.6 hPa
14%
15.7°
3
Windvlaag: 3 m/s
64%
02:00
17°
1010.4 hPa
14%
16.0°
3
Windvlaag: 4.6 m/s
17%
03:00
17°
1010.5 hPa
14%
16.2°
3
Windvlaag: 5 m/s
60%
04:00
17°
1010.3 hPa
17%
16.2°
3
Windvlaag: 5 m/s
48%
05:00
16°
1010.2 hPa
15%
15.9°
3
Windvlaag: 6.5 m/s
16%
06:00
16°
1010.0 hPa
14%
15.5°
3
Windvlaag: 6.9 m/s
57%
07:00
16°
1010.2 hPa
14%
15.0°
3
Windvlaag: 5.1 m/s
83%
08:00
16°
1010.3 hPa
14%
14.9°
4
Windvlaag: 5.8 m/s
85%
09:00
17°
1010.3 hPa
14%
15.1°
3
Windvlaag: 5.8 m/s
70%
10:00
18°
1010.4 hPa
14%
15.6°
4
Windvlaag: 7.4 m/s
73%
11:00
19°
1010.4 hPa
14%
15.2°
4
Windvlaag: 7.7 m/s
80%
12:00
20°
1010.2 hPa
14%
16.2°
4
Windvlaag: 7.3 m/s
63%
13:00
20°
1010.0 hPa
32%
16.4°
4
Windvlaag: 7.2 m/s
74%
14:00
20°
1009.8 hPa 1.5 mm
81%
15.3°
4
Windvlaag: 6.4 m/s
84%
15:00
21°
1009.6 hPa
82%
15.5°
4
Windvlaag: 7 m/s
64%
16:00
21°
1009.4 hPa 1.4 mm
82%
14.7°
3
Windvlaag: 7 m/s
67%
17:00
20°
1009.2 hPa 2.1 mm
82%
16.5°
3
Windvlaag: 7.1 m/s
79%
18:00
20°
1009.1 hPa 2.6 mm
82%
16.8°
3
Windvlaag: 7 m/s
73%
19:00
19°
1008.9 hPa 3.3 mm
82%
15.7°
3
Windvlaag: 5.8 m/s
86% warningclass
20:00
18°
1008.8 hPa 3.4 mm
82%
15.7°
3
Windvlaag: 5.6 m/s
73%
21:00
18°
1008.8 hPa
82%
15.3°
4
Windvlaag: 6 m/s
62%
22:00
17°
1009.0 hPa
82%
14.8°
3
Windvlaag: 5.9 m/s
58%
23:00
17°
1009.0 hPa
78%
15.4°
3
Windvlaag: 6 m/s
50%
 06:01     21:37    Daglengte: 15:36 Woensdag 28 Jul
00:00
17°
1008.9 hPa
64%
15.6°
3
Windvlaag: 6.9 m/s
53%
01:00
17°
1008.7 hPa
65%
15.2°
4
Windvlaag: 7.2 m/s
81%
02:00
17°
1008.3 hPa
76%
14.7°
4
Windvlaag: 7.5 m/s
69%
03:00
16°
1007.8 hPa
74%
14.2°
4
Windvlaag: 8.1 m/s
62%
04:00
16°
1007.5 hPa
65%
14.6°
4
Windvlaag: 9.4 m/s
59%
05:00
16°
1007.3 hPa
62%
14.5°
5
Windvlaag: 10 m/s
60%
06:00
16°
1007.3 hPa
15%
14.0°
5
Windvlaag: 10.4 m/s
62%
07:00
16°
1007.4 hPa
18%
13.6°
5
Windvlaag: 10.4 m/s
57%
08:00
16°
1007.4 hPa
82%
13.7°
6
Windvlaag: 10.8 m/s
71%
09:00
17°
1007.4 hPa
81%
13.9°
6
Windvlaag: 11.3 m/s
63%
10:00
17°
1007.5 hPa 2.7 mm
82%
14.2°
7
Windvlaag: 11.4 m/s
63%
11:00
18°
1007.2 hPa 2.7 mm
100%
14.1°
7
Windvlaag: 11.4 m/s
73%
12:00
18°
1007.2 hPa 3.0 mm
100%
14.2°
7
Windvlaag: 11.4 m/s
70%
13:00
19°
1007.4 hPa 3.0 mm
100%
14.8°
7
Windvlaag: 10.1 m/s
74%
14:00
19°
1007.6 hPa 3.2 mm
100%
14.2°
7
Windvlaag: 9 m/s
85%
15:00
19°
1007.8 hPa 3.2 mm
100%
12.8°
7
Windvlaag: 7.5 m/s
87% warningclass
16:00
19°
1008.0 hPa 5.0 mm
100%
11.4°
7
Windvlaag: 7.7 m/s
75%
17:00
19°
1008.0 hPa 4.9 mm
100%
9.8°
8
Windvlaag: 7.5 m/s
55%
18:00
19°
1007.9 hPa 3.4 mm
100%
12.1°
8
Windvlaag: 8.8 m/s
93%
19:00
18°
1007.6 hPa 3.4 mm
100%
9.5°
7
Windvlaag: 10 m/s
17%
20:00
18°
1007.5 hPa 5.1 mm
100%
9.9°
7
Windvlaag: 9.3 m/s
22%
21:00
17°
1007.6 hPa 3.3 mm
100%
10.8°
5
Windvlaag: 8.7 m/s
30%
22:00
17°
1007.7 hPa 3.1 mm
87%
10.5°
5
Windvlaag: 7.5 m/s
54%
23:00
16°
1007.5 hPa 4.9 mm
86%
10.5°
5
Windvlaag: 9.2 m/s
63%
 06:02     21:36    Daglengte: 15:34 Donderdag 29 Jul
00:00
16°
1007.2 hPa 4.9 mm
85%
10.8°
7
Windvlaag: 10.1 m/s
44%
01:00
16°
1006.9 hPa 4.9 mm
89%
11.8°
7
Windvlaag: 11.4 m/s
49%
02:00
15°
1006.5 hPa 4.9 mm
91%
12.0°
7
Windvlaag: 11.8 m/s
54%
03:00
15°
1006.1 hPa 3.4 mm
99%
12.4°
7
Windvlaag: 12.4 m/s
69%
04:00
15°
1005.9 hPa 3.4 mm
96%
12.6°
7
Windvlaag: 12.4 m/s
59%
05:00
14°
1006.0 hPa 5.5 mm
32%
12.8°
6
Windvlaag: 11.3 m/s
50%
06:00
14°
1006.2 hPa 5.0 mm
25%
12.6°
6
Windvlaag: 10.3 m/s
27%
07:00
14°
1006.3 hPa
31%
12.2°
6
Windvlaag: 10.4 m/s
22%
08:00
15°
1006.6 hPa
85%
12.0°
7
Windvlaag: 10 m/s
50%
09:00
16°
1008.4 hPa
42%
13.3°
6
Windvlaag: 13 m/s
20%
10:00
17°
1008.6 hPa
28%
13.2°
6
Windvlaag: 13.5 m/s
20%
11:00
18°
1008.9 hPa
24%
11.9°
6
Windvlaag: 14 m/s
19%
12:00
19°
1009.3 hPa
24%
12.2°
7
Windvlaag: 14.4 m/s
18%
13:00
19°
1009.5 hPa
25%
12.8°
7
Windvlaag: 15.7 m/s
20%
14:00
20°
1009.5 hPa
22%
12.5°
7
Windvlaag: 14.1 m/s
19%
Temp/Neerslag /Baro Onweer/Dauwpunt
    Temp Baro Neerslag Dauwpunt Wind Bewolking  
 05:58     21:40    Daglengte: 15:42 Vandaag
17:00
20°
1009.0 hPa 3.0 mm 16.1°
4
80% warningclass
20:00
18°
1009.4 hPa 0.8 mm 15.5°
4
67%
23:00
17°
1010.8 hPa 0.4 mm 15.7°
3
20%
 05:59     21:39    Daglengte: 15:40 Morgen
02:00
17°
1010.4 hPa   16.0°
3
17%
05:00
16°
1010.2 hPa   15.9°
3
16%
08:00
16°
1010.3 hPa   14.9°
4
85%
11:00
19°
1010.4 hPa   15.2°
4
80%
14:00
20°
1009.8 hPa 1.5 mm 15.3°
4
84%
17:00
20°
1009.2 hPa 3.6 mm 16.5°
3
79%
20:00
18°
1008.8 hPa 9.2 mm 15.7°
3
73%
23:00
17°
1009.0 hPa   15.4°
3
50%
 06:01     21:37    Daglengte: 15:36 Woensdag 28 Jul
02:00
17°
1008.3 hPa   14.7°
4
69%
05:00
16°
1007.3 hPa   14.5°
5
60%
08:00
16°
1007.4 hPa   13.7°
6
71%
11:00
18°
1007.2 hPa 5.5 mm 14.1°
7
73%
14:00
19°
1007.6 hPa 9.2 mm 14.2°
7
85%
17:00
19°
1008.0 hPa 13.1 mm 9.8°
8
55%
20:00
18°
1007.5 hPa 11.8 mm 9.9°
7
22%
23:00
16°
1007.5 hPa 11.4 mm 10.5°
5
63%
 06:02     21:36    Daglengte: 15:34 Donderdag 29 Jul
02:00
15°
1006.5 hPa 14.7 mm 12.0°
7
54%
05:00
14°
1006.0 hPa 12.3 mm 12.8°
6
50%
08:00
15°
1006.6 hPa 5.0 mm 12.0°
7
50%
11:00
18°
1008.9 hPa   11.9°
6
19%
14:00
20°
1009.5 hPa   12.5°
7
19%
17:00
20°
1010.2 hPa 18.9 mm 11.7°
9
0%
20:00
18°
1010.1 hPa 19.0 mm 12.5°
7
0%
23:00
16°
1010.4 hPa 19.0 mm 11.3°
6
0%
 06:04     21:34    Daglengte: 15:30 Vrijdag 30 Jul
02:00
15°
1010.5 hPa 19.1 mm 11.9°
5
0%
05:00
14°
1010.3 hPa 19.1 mm 11.8°
4
0%
08:00
16°
1010.6 hPa 19.1 mm 12.0°
4
0%
11:00
19°
1010.6 hPa 19.1 mm 11.4°
5
1%
14:00
21°
1009.8 hPa 19.1 mm 12.0°
5
1%
17:00
22°
1008.8 hPa 19.1 mm 11.8°
3
1%
20:00
19°
1007.5 hPa 19.2 mm 12.6°
2
1%
23:00
16°
1007.7 hPa 22.5 mm 14.9°
2
1%
 06:05     21:33    Daglengte: 15:28 Zaterdag 31 Jul
02:00
15°
1007.1 hPa 22.6 mm 14.5°
3
1%
05:00
13°
1005.9 hPa 22.6 mm 12.2°
3
1%
08:00
14°
1004.9 hPa 22.6 mm 12.0°
4
0%
11:00
15°
1003.5 hPa 23.0 mm 12.8°
7
1%
14:00
15°
1001.5 hPa 25.3 mm 13.3°
8
1%
17:00
18°
1003.4 hPa 26.9 mm 14.5°
8
1%
20:00
17°
1006.2 hPa 27.1 mm 12.7°
4
0%
23:00
14°
1007.4 hPa 27.1 mm 12.5°
3
0%
 06:07     21:31    Daglengte: 15:24 Zondag 01 Aug
02:00
13°
1007.2 hPa 27.1 mm 12.2°
2
0%
05:00
14°
1006.5 hPa 27.3 mm 12.7°
1
1%
08:00
14°
1006.5 hPa 28.1 mm 13.3°
1
1%
11:00
16°
1006.9 hPa 29.0 mm 13.3°
2
1%
14:00
18°
1007.7 hPa 31.6 mm 13.1°
5
1%
17:00
17°
1009.2 hPa 33.1 mm 12.2°
5
1%
20:00
16°
1010.4 hPa 33.5 mm 10.9°
4
1%
23:00
13°
1012.2 hPa 33.5 mm 9.1°
3
0%
 06:08     21:29    Daglengte: 15:21 Maandag 02 Aug
02:00
12°
1013.2 hPa 33.5 mm 9.4°
2
0%
05:00
12°
1013.6 hPa 33.6 mm 9.0°
3
0%
08:00
14°
1014.5 hPa 33.7 mm 10.4°
3
0%
11:00
17°
1015.8 hPa 34.0 mm 9.3°
4
1%
14:00
19°
1015.9 hPa 68.1 mm 8.3°
4
1%
20:00
17°
1015.3 hPa 68.2 mm 9.3°
2
1%
 06:10     21:27    Daglengte: 15:17 Dinsdag 03 Aug
02:00
13°
1015.4 hPa 68.2 mm 9.6°
2
0%
08:00
15°
1015.0 hPa 68.2 mm 11.7°
4
1%
14:00
21°
1014.9 hPa 68.4 mm 11.7°
6
1%
20:00
19°
1013.5 hPa 68.5 mm 13.4°
5
1%
 06:11     21:26    Daglengte: 15:15 Woensdag 04 Aug
02:00
17°
1012.1 hPa 68.6 mm 11.8°
6
1%
08:00
17°
1010.3 hPa 68.6 mm 13.0°
6
1%
14:00
18°
1009.3 hPa 69.4 mm 15.2°
7
1%
20:00
18°
1008.3 hPa 72.6 mm 13.6°
8
1%
 06:13     21:24    Daglengte: 15:11 Donderdag 05 Aug
02:00
16°
1008.6 hPa 73.6 mm 12.0°
4
0%
08:00
16°
1007.6 hPa 74.0 mm 13.1°
5
1%
14:00
20°
1010.0 hPa 1.2 mm 12.6°
4
74%
20:00
18°
1008.6 hPa 1.4 mm 12.9°
2
71%
 06:15     21:22    Daglengte: 15:07 Vrijdag 06 Aug
02:00
15°
1008.1 hPa 0.9 mm 12.2°
2
58%
08:00
15°
1007.6 hPa 0.9 mm 12.5°
2
59%
14:00
19°
1008.0 hPa 1.8 mm 12.5°
4
63%
20:00
18°
1007.3 hPa 1.7 mm 12.7°
3
55%
 06:16     21:20    Daglengte: 15:04 Zaterdag 07 Aug
02:00
15°
1007.5 hPa 0.8 mm 12.0°
3
54%
08:00
15°
1007.5 hPa 0.7 mm 12.1°
3
60%
14:00
19°
1008.3 hPa 1.4 mm 12.8°
5
73%
20:00
17°
1008.9 hPa 1.4 mm 12.2°
4
59%
 06:18     21:18    Daglengte: 15:00 Zondag 08 Aug
02:00
15°
1009.7 hPa 0.5 mm 11.6°
3
59%
08:00
15°
1009.5 hPa 1.4 mm 12.2°
4
69%
14:00
18°
1010.7 hPa 2.1 mm 12.5°
5
71%
20:00
17°
1011.4 hPa 1.0 mm 12.3°
4
65%
 06:19     21:17    Daglengte: 14:58 Maandag 09 Aug
02:00
15°
1012.2 hPa 0.5 mm 11.8°
3
69%
08:00
15°
1012.6 hPa 0.7 mm 11.7°
4
69%
14:00
19°
1013.9 hPa 1.2 mm 12.0°
5
63%
20:00
17°
1014.3 hPa 0.5 mm 11.9°
3
62%
 06:21     21:15    Daglengte: 14:54 Dinsdag 10 Aug
02:00
14°
1015.0 hPa 0.4 mm 11.4°
2
53%
08:00
15°
1015.1 hPa 0.7 mm 11.9°
2
52%
14:00
20°
1016.1 hPa 0.8 mm 12.3°
4
51%
  CAPE Lifted Index Hail Supercell Tornado SRH 3km CL BTM PRES CL TOP PRES Swiss DWD icon SMHI TS
 05:58     21:40    Daglengte: 15:42 Vandaag
16:00 793 J/kg -3.0 K 0 % 0 % 0 % 0 m²/s² 0 0 -1.59 3
17:00 821 J/kg -3.1 K 0 % 0 % 0 % 0 m²/s² 0 0 -1.69 95
18:00 777 J/kg -3.1 K 0 % 0 % 0 % 0 m²/s² 0 0 -1.54 95
19:00 748 J/kg -2.9 K 0 % 0 % 0 % 0 m²/s² 0 0 -1.73 95
20:00 535 J/kg -2.2 K 0 % 0 % 0 % 0 m²/s² 0 0 -0.7 80
21:00 193 J/kg -1.1 K 0 % 0 % 0 % 0 m²/s² 0 0 0.25 3
22:00 51 J/kg -0.5 K 0 % 0 % 0 % 0 m²/s² 0 0 0.25 3
23:00 57 J/kg -0.1 K 0 % 0 % 0 % 0 m²/s² 0 0 0.47 3
 05:59     21:39    Daglengte: 15:40 Morgen
00:00 65 J/kg 0.1 K 0 % 0 % 0 % 0 m²/s² 0 0 1.12 3
01:00 0 J/kg 0.6 K 0 % 0 % 0 % 0 m²/s² 0 0 2.28 3
02:00 4 J/kg 0.4 K 0 % 0 % 0 % 0 m²/s² 0 0 2.32 3
03:00 0 J/kg -0.3 K 0 % 0 % 0 % 0 m²/s² 0 0 2.1 3
04:00 1 J/kg 0.1 K 0 % 0 % 0 % 0 m²/s² 0 0 2.44 2
05:00 0 J/kg 0.3 K 0 % 0 % 0 % 0 m²/s² 0 0 2.91 2
06:00 0 J/kg -0.1 K 0 % 0 % 0 % 0 m²/s² 0 0 2.36 3
07:00 0 J/kg 0.4 K 0 % 0 % 0 % 0 m²/s² 0 0 2.86 3
08:00 0 J/kg -0.6 K 0 % 0 % 0 % 0 m²/s² 0 0 2.1 3
09:00 72 J/kg -2.0 K 0 % 0 % 0 % 0 m²/s² 0 0 0.46 3
10:00 217 J/kg -2.1 K 0 % 0 % 0 % 0 m²/s² 0 0 -0.87 3
11:00 0 J/kg 0.3 K 0 % 0 % 0 % 0 m²/s² 0 0 0.39 3
12:00 0 J/kg 0.4 K 0 % 0 % 0 % 0 m²/s² 0 0 0.64 3
13:00 78 J/kg 0.0 K 0 % 0 % 0 % 0 m²/s² 0 0 0.57 3
14:00 531 J/kg -2.0 K 0 % 0 % 0 % 0 m²/s² 0 0 -1.79 80
15:00 466 J/kg -2.0 K 0 % 0 % 0 % 0 m²/s² 0 0 -1.22 3
16:00 232 J/kg -0.9 K 0 % 0 % 0 % 0 m²/s² 0 0 -0.48 80
17:00 94 J/kg -0.2 K 0 % 0 % 0 % 0 m²/s² 0 0 -0.08 80
18:00 55 J/kg 0.5 K 0 % 0 % 0 % 0 m²/s² 0 0 0.53 80
19:00 237 J/kg -1.1 K 0 % 0 % 0 % 0 m²/s² 0 0 -0.68 95
20:00 342 J/kg -1.3 K 0 % 0 % 0 % 0 m²/s² 0 0 -0.16 80
21:00 395 J/kg -1.6 K 0 % 0 % 0 % 0 m²/s² 0 0 -0.7 3
22:00 434 J/kg -2.0 K 0 % 0 % 0 % 0 m²/s² 0 0 -1.67 80
23:00 299 J/kg -1.6 K 0 % 0 % 0 % 0 m²/s² 0 0 -0.85 3
 06:01     21:37    Daglengte: 15:36 Woensdag 28 Jul
00:00 322 J/kg -1.5 K 0 % 0 % 0 % 0 m²/s² 0 0 -0.99 3
01:00 399 J/kg -2.2 K 0 % 0 % 0 % 0 m²/s² 0 0 -1.18 3
02:00 219 J/kg -1.2 K 0 % 0 % 0 % 0 m²/s² 0 0 0.42 3
03:00 50 J/kg -0.3 K 0 % 0 % 0 % 0 m²/s² 0 0 1.5 3
04:00 0 J/kg 1.2 K 0 % 0 % 0 % 0 m²/s² 0 0 2.82 3
05:00 0 J/kg 1.1 K 0 % 0 % 0 % 0 m²/s² 0 0 2.33 3
06:00 2 J/kg 1.5 K 0 % 0 % 0 % 0 m²/s² 0 0 3.24 3
07:00 1 J/kg 3.0 K 0 % 0 % 0 % 0 m²/s² 0 0 4.86 3
08:00 2 J/kg 3.0 K 0 % 0 % 0 % 0 m²/s² 0 0 5.13 80
09:00 22 J/kg 2.1 K 0 % 0 % 0 % 0 m²/s² 0 0 4.29 3
10:00 45 J/kg 1.9 K 0 % 0 % 0 % 0 m²/s² 0 0 5.26 80
11:00 75 J/kg 1.2 K 0 % 0 % 0 % 0 m²/s² 0 0 3.54 80
12:00 120 J/kg 0.6 K 0 % 0 % 0 % 0 m²/s² 0 0 2.73 80
13:00 244 J/kg -0.2 K 0 % 0 % 0 % 0 m²/s² 0 0 1.78 80
14:00 341 J/kg -0.6 K 0 % 0 % 0 % 0 m²/s² 0 0 1.77 80
15:00 258 J/kg -0.3 K 0 % 0 % 0 % 0 m²/s² 0 0 2.01 95
16:00 251 J/kg -0.5 K 0 % 0 % 0 % 0 m²/s² 0 0 1.81 80
17:00 124 J/kg 0.1 K 0 % 0 % 0 % 0 m²/s² 0 0 2.62 80
18:00 368 J/kg -1.4 K 0 % 0 % 0 % 0 m²/s² 0 0 1.33 80
19:00 61 J/kg 1.1 K 0 % 0 % 0 % 0 m²/s² 0 0 5.27 80
20:00 85 J/kg 1.5 K 0 % 0 % 0 % 0 m²/s² 0 0 5.79 80
21:00 149 J/kg 1.4 K 0 % 0 % 0 % 0 m²/s² 0 0 5.66 80
22:00 130 J/kg 2.1 K 0 % 0 % 0 % 0 m²/s² 0 0 3.81 80
23:00 28 J/kg 3.9 K 0 % 0 % 0 % 0 m²/s² 0 0 7.29 80
 06:02     21:36    Daglengte: 15:34 Donderdag 29 Jul
00:00 0 J/kg 4.8 K 0 % 0 % 0 % 0 m²/s² 0 0 6.75 3
01:00 42 J/kg 5.2 K 0 % 0 % 0 % 0 m²/s² 0 0 9.34 3
02:00 62 J/kg 5.3 K 0 % 0 % 0 % 0 m²/s² 0 0 9.53 3
03:00 60 J/kg 5.3 K 0 % 0 % 0 % 0 m²/s² 0 0 10.25 80
04:00 108 J/kg 5.1 K 0 % 0 % 0 % 0 m²/s² 0 0 9.42 80
05:00 174 J/kg 5.1 K 0 % 0 % 0 % 0 m²/s² 0 0 8.52 2
06:00 208 J/kg 4.9 K 0 % 0 % 0 % 0 m²/s² 0 0 7.87 2
07:00 253 J/kg 4.8 K 0 % 0 % 0 % 0 m²/s² 0 0 7.44 2
08:00 273 J/kg 4.6 K 0 % 0 % 0 % 0 m²/s² 0 0 7.09 2
09:00 277 J/kg 3.7 K 0 % 0 % 0 % 0 m²/s² 0 0 6.34 2
10:00 365 J/kg 2.6 K 0 % 0 % 0 % 0 m²/s² 0 0 5.33 2
11:00 315 J/kg 2.8 K 0 % 0 % 0 % 0 m²/s² 0 0 4.24 2
12:00 303 J/kg 2.2 K 0 % 0 % 0 % 0 m²/s² 0 0 4.57 2
13:00 291 J/kg 1.0 K 0 % 0 % 0 % 0 m²/s² 0 0 3.91 2
14:00 248 J/kg -0.2 K 0 % 0 % 0 % 0 m²/s² 0 0 4.24 1
Temp Baro Wind Neerslag
  EWN Forecast EWN WRFDA DWD ICON FMI HIRLAM MET Norway GFS
 05:58     21:40    Daglengte: 15:42 Vandaag
17:00 19.8° 1009.0 hPa 3.6 m/s 3.0 mm 21.3° 1008.5 hPa 2.6 m/s 2.5 mm 19.6° 1009.1 hPa 2.6 m/s 3.6 mm 20.7° 1008.6 hPa 3.8 m/s 0.0 mm 21.5° 1008.8 hPa 2.2 m/s
20:00 18.1° 1009.4 hPa 3.8 m/s 0.8 mm 19.9° 1008.8 hPa 4.2 m/s 4.1 mm 18.1° 1009.4 hPa 3.0 m/s 2.6 mm 18.7° 1009.1 hPa 3.7 m/s 0.0 mm 19.3° 1009.1 hPa 3.4 m/s
23:00 17.1° 1010.8 hPa 2.8 m/s 0.4 mm 16.7° 1010.2 hPa 1.8 m/s 4.4 mm 17.2° 1011.0 hPa 2.4 m/s 0.1 mm 17.3° 1010.2 hPa 2.8 m/s 0.0 mm 15.8° 1010.2 hPa 2.3 m/s
 05:59     21:39    Daglengte: 15:40 Morgen
02:00 16.5° 1010.4 hPa 2.7 m/s 0.0 mm 15.6° 1009.4 hPa 2.2 m/s 4.4 mm 17.0° 1010.5 hPa 2.1 m/s 0.0 mm 16.0° 1009.9 hPa 2.6 m/s 0.0 mm 15.3° 1010.9 hPa 2.2 m/s
05:00 16.2° 1010.2 hPa 2.9 m/s 0.0 mm 15.2° 1008.7 hPa 3.5 m/s 4.4 mm 16.5° 1010.5 hPa 2.5 m/s 0.0 mm 15.2° 1009.3 hPa 2.5 m/s 0.0 mm 14.6° 1010.0 hPa 2.5 m/s
08:00 16.3° 1010.3 hPa 3.6 m/s 0.0 mm 16.4° 1008.9 hPa 3.3 m/s 4.4 mm 16.7° 1010.8 hPa 3.7 m/s 0.0 mm 16.1° 1009.3 hPa 3.3 m/s 0.0 mm 16.4° 1010.0 hPa 3.5 m/s
11:00 19.3° 1010.4 hPa 4.0 m/s 0.0 mm 17.4° 1010.1 hPa 4.4 m/s 5.8 mm 19.9° 1010.7 hPa 3.6 m/s 0.0 mm 19.7° 1009.7 hPa 3.9 m/s 0.0 mm 20.2° 1009.9 hPa 4.9 m/s
14:00 20.0° 1009.8 hPa 4.1 m/s 1.5 mm 21.9° 1009.6 hPa 3.3 m/s 16.5 mm 19.8° 1010.7 hPa 4.2 m/s 0.3 mm 21.2° 1008.9 hPa 3.3 m/s 0.0 mm 20.8° 1010.1 hPa 5.0 m/s
17:00 19.9° 1009.2 hPa 3.5 m/s 3.6 mm 17.8° 1009.2 hPa 4.7 m/s 19.6 mm 20.2° 1009.9 hPa 3.3 m/s 1.3 mm 20.9° 1007.9 hPa 1.8 m/s 0.0 mm 21.8° 1009.4 hPa 3.6 m/s
20:00 18.4° 1008.8 hPa 3.4 m/s 9.2 mm 18.9° 1008.0 hPa 4.0 m/s 36.5 mm 18.4° 1009.4 hPa 3.2 m/s 4.0 mm 19.6° 1007.5 hPa 3.2 m/s 0.0 mm 20.2° 1008.7 hPa 2.9 m/s
23:00 16.8° 1009.0 hPa 2.9 m/s 0.0 mm 17.5° 1008.4 hPa 4.0 m/s 37.8 mm 17.5° 1009.3 hPa 2.6 m/s 0.4 mm 16.7° 1009.0 hPa 2.5 m/s 0.0 mm 16.5° 1009.3 hPa 3.0 m/s
 06:01     21:37    Daglengte: 15:36 Woensdag 28 Jul
02:00 16.7° 1008.3 hPa 4.5 m/s 0.0 mm 16.2° 1007.5 hPa 3.3 m/s 37.8 mm 16.9° 1008.0 hPa 3.4 m/s 0.1 mm 16.4° 1009.1 hPa 5.1 m/s 0.0 mm 15.4° 1008.7 hPa 3.6 m/s
05:00 16.1° 1007.3 hPa 4.6 m/s 0.0 mm 15.0° 1007.0 hPa 3.9 m/s 37.8 mm 16.7° 1007.2 hPa 3.4 m/s 0.0 mm 15.5° 1008.3 hPa 4.4 m/s 0.0 mm 15.5° 1007.9 hPa 5.0 m/s
08:00 16.1° 1007.4 hPa 5.8 m/s 0.0 mm 15.5° 1007.1 hPa 5.4 m/s 37.8 mm 16.4° 1006.2 hPa 4.3 m/s 0.2 mm 16.1° 1008.4 hPa 5.7 m/s 0.0 mm 15.5° 1008.4 hPa 6.0 m/s
11:00 17.7° 1007.2 hPa 6.9 m/s 5.5 mm 17.8° 1006.8 hPa 6.7 m/s 38.0 mm 18.2° 1007.1 hPa 5.9 m/s 0.8 mm 16.7° 1008.3 hPa 7.0 m/s
14:00 18.7° 1007.6 hPa 6.9 m/s 9.2 mm 19.3° 1007.2 hPa 6.9 m/s 39.4 mm 18.8° 1007.7 hPa 6.1 m/s 1.4 mm 18.1° 1008.8 hPa 7.3 m/s
17:00 19.3° 1008.0 hPa 7.5 m/s 13.1 mm 21.4° 1007.1 hPa 7.6 m/s 41.8 mm 18.2° 1008.3 hPa 6.4 m/s 1.6 mm 19.7° 1008.6 hPa 7.5 m/s
20:00 17.7° 1007.5 hPa 6.7 m/s 11.8 mm 19.5° 1006.9 hPa 6.9 m/s 43.1 mm 17.3° 1007.5 hPa 5.5 m/s 1.3 mm 18.5° 1007.5 hPa 6.1 m/s
23:00 16.4° 1007.5 hPa 5.5 m/s 11.4 mm 17.3° 1006.6 hPa 4.8 m/s 43.2 mm 16.3° 1007.6 hPa 5.3 m/s 0.9 mm 17.5° 1007.1 hPa 7.2 m/s
 06:02     21:36    Daglengte: 15:34 Donderdag 29 Jul
02:00 15.0° 1006.5 hPa 6.6 m/s 14.7 mm 14.8° 1006.1 hPa 6.4 m/s 43.2 mm 15.5° 1007.3 hPa 5.3 m/s 0.5 mm 15.0° 1006.8 hPa 7.8 m/s
05:00 14.4° 1006.0 hPa 6.3 m/s 12.3 mm 13.9° 1005.4 hPa 6.0 m/s 43.3 mm 15.2° 1007.6 hPa 4.6 m/s 0.6 mm 14.1° 1006.9 hPa 7.3 m/s
08:00 14.8° 1006.6 hPa 6.6 m/s 5.0 mm 14.7° 1005.3 hPa 6.8 m/s 44.8 mm 15.5° 1008.8 hPa 4.8 m/s 0.0 mm 14.6° 1007.0 hPa 8.1 m/s
11:00 18.0° 1008.9 hPa 6.4 m/s 0.0 mm 17.2° 1005.9 hPa 9.1 m/s 47.1 mm 18.2° 1009.7 hPa 5.7 m/s 0.0 mm 17.0° 1009.1 hPa 7.8 m/s
14:00 19.6° 1009.5 hPa 7.0 m/s 0.0 mm 18.9° 1006.6 hPa 10.2 m/s 51.5 mm 19.8° 1010.2 hPa 6.3 m/s 0.0 mm 19.2° 1010.2 hPa 9.0 m/s
17:00 19.9° 1010.2 hPa 8.7 m/s 18.9 mm 19.9° 1010.2 hPa 8.7 m/s 18.9 mm
20:00 18.0° 1010.1 hPa 7.5 m/s 19.0 mm 18.0° 1010.1 hPa 7.5 m/s 19.0 mm
23:00 16.3° 1010.4 hPa 6.5 m/s 19.0 mm 16.3° 1010.4 hPa 6.5 m/s 19.0 mm
 06:04     21:34    Daglengte: 15:30 Vrijdag 30 Jul
02:00 15.3° 1010.5 hPa 4.6 m/s 19.1 mm 15.3° 1010.5 hPa 4.6 m/s 19.1 mm
05:00 14.0° 1010.3 hPa 3.6 m/s 19.1 mm 14.0° 1010.3 hPa 3.6 m/s 19.1 mm
08:00 15.6° 1010.6 hPa 3.9 m/s 19.1 mm 15.6° 1010.6 hPa 3.9 m/s 19.1 mm
11:00 19.0° 1010.6 hPa 5.3 m/s 19.1 mm 19.0° 1010.6 hPa 5.3 m/s 19.1 mm
14:00 21.3° 1009.8 hPa 4.8 m/s 19.1 mm 21.3° 1009.8 hPa 4.8 m/s 19.1 mm
17:00 21.8° 1008.8 hPa 3.2 m/s 19.1 mm 21.8° 1008.8 hPa 3.2 m/s 19.1 mm
20:00 19.4° 1007.5 hPa 1.8 m/s 19.2 mm 19.4° 1007.5 hPa 1.8 m/s 19.2 mm
23:00 15.7° 1007.7 hPa 1.9 m/s 22.5 mm 15.7° 1007.7 hPa 1.9 m/s 22.5 mm
 06:05     21:33    Daglengte: 15:28 Zaterdag 31 Jul
02:00 15.4° 1007.1 hPa 2.6 m/s 22.6 mm 15.4° 1007.1 hPa 2.6 m/s 22.6 mm
05:00 13.0° 1005.9 hPa 2.9 m/s 22.6 mm 13.0° 1005.9 hPa 2.9 m/s 22.6 mm
08:00 14.3° 1004.9 hPa 4.5 m/s 22.6 mm 14.3° 1004.9 hPa 4.5 m/s 22.6 mm
11:00 15.3° 1003.5 hPa 6.5 m/s 23.0 mm 15.3° 1003.5 hPa 6.5 m/s 23.0 mm
14:00 14.7° 1001.5 hPa 7.5 m/s 25.3 mm 14.7° 1001.5 hPa 7.5 m/s 25.3 mm
17:00 17.9° 1003.4 hPa 8.1 m/s 26.9 mm 17.9° 1003.4 hPa 8.1 m/s 26.9 mm
20:00 17.1° 1006.2 hPa 4.3 m/s 27.1 mm 17.1° 1006.2 hPa 4.3 m/s 27.1 mm
23:00 14.1° 1007.4 hPa 2.8 m/s 27.1 mm 14.1° 1007.4 hPa 2.8 m/s 27.1 mm
 06:07     21:31    Daglengte: 15:24 Zondag 01 Aug
02:00 13.4° 1007.2 hPa 1.7 m/s 27.1 mm 13.4° 1007.2 hPa 1.7 m/s 27.1 mm
05:00 14.1° 1006.5 hPa 1.4 m/s 27.3 mm 14.1° 1006.5 hPa 1.4 m/s 27.3 mm
08:00 14.5° 1006.5 hPa 1.2 m/s 28.1 mm 14.5° 1006.5 hPa 1.2 m/s 28.1 mm
11:00 15.8° 1006.9 hPa 1.8 m/s 29.0 mm 15.8° 1006.9 hPa 1.8 m/s 29.0 mm
14:00 17.5° 1007.7 hPa 5.1 m/s 31.6 mm 17.5° 1007.7 hPa 5.1 m/s 31.6 mm
17:00 17.2° 1009.2 hPa 5.1 m/s 33.1 mm 17.2° 1009.2 hPa 5.1 m/s 33.1 mm
20:00 15.9° 1010.4 hPa 4.1 m/s 33.5 mm 15.9° 1010.4 hPa 4.1 m/s 33.5 mm
23:00 13.0° 1012.2 hPa 2.6 m/s 33.5 mm 13.0° 1012.2 hPa 2.6 m/s 33.5 mm
 06:08     21:29    Daglengte: 15:21 Maandag 02 Aug
02:00 12.4° 1013.2 hPa 2.4 m/s 33.5 mm 12.4° 1013.2 hPa 2.4 m/s 33.5 mm
05:00 11.8° 1013.6 hPa 2.6 m/s 33.6 mm 11.8° 1013.6 hPa 2.6 m/s 33.6 mm
08:00 14.4° 1014.5 hPa 2.9 m/s 33.7 mm 14.4° 1014.5 hPa 2.9 m/s 33.7 mm
11:00 17.1° 1015.8 hPa 3.6 m/s 34.0 mm 17.1° 1015.8 hPa 3.6 m/s 34.0 mm
14:00 19.2° 1015.9 hPa 4.1 m/s 34.1 mm 19.2° 1015.9 hPa 4.1 m/s 34.1 mm
20:00 17.3° 1015.3 hPa 2.4 m/s 34.1 mm 17.3° 1015.3 hPa 2.4 m/s 34.1 mm
 06:10     21:27    Daglengte: 15:17 Dinsdag 03 Aug
02:00 12.9° 1015.4 hPa 2.0 m/s 34.1 mm 12.9° 1015.4 hPa 2.0 m/s 34.1 mm
08:00 14.7° 1015.0 hPa 3.8 m/s 34.1 mm 14.7° 1015.0 hPa 3.8 m/s 34.1 mm
14:00 20.7° 1014.9 hPa 6.1 m/s 34.2 mm 20.7° 1014.9 hPa 6.1 m/s 34.2 mm
20:00 18.9° 1013.5 hPa 4.8 m/s 34.3 mm 18.9° 1013.5 hPa 4.8 m/s 34.3 mm
 06:11     21:26    Daglengte: 15:15 Woensdag 04 Aug
02:00 17.1° 1012.1 hPa 5.7 m/s 34.3 mm 17.1° 1012.1 hPa 5.7 m/s 34.3 mm
08:00 17.0° 1010.3 hPa 5.6 m/s 34.3 mm 17.0° 1010.3 hPa 5.6 m/s 34.3 mm
14:00 18.5° 1009.3 hPa 7.4 m/s 35.1 mm 18.5° 1009.3 hPa 7.4 m/s 35.1 mm
20:00 18.4° 1008.3 hPa 7.8 m/s 36.4 mm 18.4° 1008.3 hPa 7.8 m/s 36.4 mm
 06:13     21:24    Daglengte: 15:11 Donderdag 05 Aug
02:00 15.5° 1008.6 hPa 4.4 m/s 36.9 mm 15.5° 1008.6 hPa 4.4 m/s 36.9 mm
08:00 15.8° 1007.6 hPa 4.6 m/s 37.0 mm 15.8° 1007.6 hPa 4.6 m/s 37.0 mm
14:00 19.7° 1010.0 hPa 3.5 m/s 1.2 mm
20:00 18.1° 1008.6 hPa 2.3 m/s 1.4 mm
 06:15     21:22    Daglengte: 15:07 Vrijdag 06 Aug
02:00 14.9° 1008.1 hPa 1.9 m/s 0.9 mm
08:00 15.0° 1007.6 hPa 2.1 m/s 0.9 mm
14:00 19.2° 1008.0 hPa 3.6 m/s 1.8 mm
20:00 17.5° 1007.3 hPa 2.6 m/s 1.7 mm
 06:16     21:20    Daglengte: 15:04 Zaterdag 07 Aug
02:00 14.7° 1007.5 hPa 2.5 m/s 0.8 mm
08:00 14.9° 1007.5 hPa 3.0 m/s 0.7 mm
14:00 18.9° 1008.3 hPa 5.0 m/s 1.4 mm
20:00 17.2° 1008.9 hPa 4.3 m/s 1.4 mm
 06:18     21:18    Daglengte: 15:00 Zondag 08 Aug
02:00 14.6° 1009.7 hPa 3.3 m/s 0.5 mm
08:00 14.9° 1009.5 hPa 3.7 m/s 1.4 mm
14:00 18.5° 1010.7 hPa 5.3 m/s 2.1 mm
20:00 17.2° 1011.4 hPa 3.8 m/s 1.0 mm
 06:19     21:17    Daglengte: 14:58 Maandag 09 Aug
02:00 14.8° 1012.2 hPa 3.1 m/s 0.5 mm
08:00 14.9° 1012.6 hPa 3.6 m/s 0.7 mm
14:00 18.6° 1013.9 hPa 5.0 m/s 1.2 mm
20:00 17.1° 1014.3 hPa 3.1 m/s 0.5 mm
 06:21     21:15    Daglengte: 14:54 Dinsdag 10 Aug
02:00 14.4° 1015.0 hPa 2.2 m/s 0.4 mm